Location: Nelson
(41.2830°S, 173.2830°E)
Time: 22:56:23
(UTC+12:00)

Cosmos 1515 Rocket - Pass Details

Date: 24 January 2019
Orbit: 605 x 631 km, 82.5° (Epoch: 19 April)

Event Time Altitude Azimuth Distance (km) Brightness Sun altitude
Rises 21:24:15 0° 17° (NNE) 2,920 6.6 -5.6°
Reaches altitude 10° 21:26:38 10° 27° (NNE) 2,021 5.7 -6.0°
Maximum altitude 21:30:38 32° 90° (E) 1,093 4.4 -6.6°
Drops below altitude 10° 21:34:41 10° 153° (SSE) 2,044 6.3 -7.2°
Sets 21:37:06 0° 162° (SSE) 2,958 7.3 -7.6°
